New York Downtown Manhattan/w, NY

7:16 AM EDT on September 21, 2019 (GMT -0400)
New York Downtown Manhattan/w

Weather History for KJRB - August, 2019

Change the Weather History Date:

Sunday, August 25, 2019

  Actual Average (KEWR) Record (KEWR)
Temperature  
Mean Temperature 72 °F -  
Max Temperature 80 °F 83 °F 97 °F (1993)
Min Temperature 66 °F 65 °F 48 °F (1940)
Cooling Degree Days 8    
Growing Degree Days 22 (Base 50)    
Moisture  
Dew Point 59 °F    
Average Humidity 66    
Maximum Humidity 83    
Minimum Humidity 44    
Precipitation  
Precipitation 0.00 in - - ()
Sea Level Pressure  
Sea Level Pressure 30.24 in    
Wind  
Wind Speed 12 mph ()    
Max Wind Speed 18 mph    
Max Gust Speed 28 mph    
Visibility 10.0 miles    
Events      
Averages and records for this station are not official NWS values.
T = Trace of Precipitation, MM = Missing Value Source: Averaged Metar Reports

Daily Weather History Graph

Daily Weather History Graph

Search for Another Location

Airport or City:

Astronomy

Aug. 25, 2019 Rise Set
Actual Time 6:15 AM EDT 7:39 PM EDT
Civil Twilight 5:47 AM EDT 8:08 PM EDT
Nautical Twilight 5:13 AM EDT 8:42 PM EDT
Astronomical Twilight 4:36 AM EDT 9:18 PM EDT
Moon 12:47 AM EDT (8/25) 3:58 PM EDT (8/25)
Length of Visible Light 14h 20m
Length of Day
13h 23m
Waning Crescent, 29% of the Moon is Illuminated
Aug 25
Waning Crescent
Aug 30
New
Sep 5
First Quarter
Sep 14
Full
Sep 21
Last Quarter

Hourly Weather History & Observations

Time (EDT) Temp. Dew Point Humidity Pressure Visibility Wind Dir Wind Speed Gust Speed Precip Events Conditions
12:56 AM 70.0 °F 59.0 °F 68% 30.26 in 10.0 mi ENE 8.1 mph - N/A   Mostly Cloudy
1:56 AM 70.0 °F 61.0 °F 73% 30.24 in 10.0 mi ENE 10.4 mph 17.3 mph N/A   Mostly Cloudy
2:56 AM 69.1 °F 60.1 °F 73% 30.24 in 10.0 mi NE 13.8 mph 20.7 mph N/A   Overcast
3:56 AM 68.0 °F 60.1 °F 76% 30.24 in 10.0 mi NE 12.7 mph - N/A   Mostly Cloudy
4:56 AM 68.0 °F 60.1 °F 76% 30.24 in 10.0 mi NE 11.5 mph - N/A   Clear
5:56 AM 66.9 °F 60.1 °F 79% 30.24 in 10.0 mi NNE 13.8 mph 19.6 mph N/A   Partly Cloudy
6:56 AM 66.9 °F 60.1 °F 79% 30.25 in 10.0 mi NNE 10.4 mph - N/A   Scattered Clouds
7:11 AM 66.2 °F 60.8 °F 83% 30.25 in 10.0 mi NNE 11.5 mph 18.4 mph N/A   Mostly Cloudy
7:56 AM 66.9 °F 60.1 °F 79% 30.26 in 10.0 mi NE 11.5 mph 17.3 mph N/A   Overcast
8:53 AM 68.0 °F 59.0 °F 73% 30.27 in 10.0 mi NE 15.0 mph 19.6 mph N/A   Mostly Cloudy
8:56 AM 68.0 °F 59.0 °F 73% 30.27 in 10.0 mi NE 15.0 mph 19.6 mph N/A   Mostly Cloudy
9:17 AM 69.8 °F 60.8 °F 73% 30.27 in 10.0 mi NE 13.8 mph 20.7 mph N/A   Mostly Cloudy
9:56 AM 71.1 °F 59.0 °F 66% 30.27 in 10.0 mi NE 17.3 mph 24.2 mph N/A   Mostly Cloudy
10:34 AM 73.4 °F 57.2 °F 57% 30.27 in 10.0 mi NE 15.0 mph 27.6 mph N/A   Mostly Cloudy
10:56 AM 73.9 °F 59.0 °F 59% 30.27 in 10.0 mi NE 17.3 mph 26.5 mph N/A   Mostly Cloudy
11:56 AM 75.0 °F 59.0 °F 57% 30.26 in 10.0 mi ENE 17.3 mph 26.5 mph N/A   Clear
12:56 PM 77.0 °F 57.9 °F 52% 30.25 in 10.0 mi ENE 15.0 mph - N/A   Clear
1:56 PM 79.0 °F 57.9 °F 48% 30.24 in 10.0 mi NE 18.4 mph 23.0 mph N/A   Scattered Clouds
2:56 PM 79.0 °F 55.0 °F 44% 30.23 in 10.0 mi NNE 13.8 mph 26.5 mph N/A   Clear
3:56 PM 79.0 °F 55.0 °F 44% 30.21 in 10.0 mi NE 12.7 mph 19.6 mph N/A   Partly Cloudy
4:56 PM 77.0 °F 57.9 °F 52% 30.21 in 10.0 mi NE 12.7 mph - N/A   Mostly Cloudy
5:56 PM 75.9 °F 57.9 °F 54% 30.21 in 10.0 mi NE 17.3 mph 23.0 mph N/A   Partly Cloudy
6:56 PM 75.0 °F 57.9 °F 55% 30.22 in 10.0 mi ENE 12.7 mph - N/A   Clear
7:56 PM 72.0 °F 61.0 °F 68% 30.23 in 10.0 mi NE 11.5 mph - N/A   Mostly Cloudy
8:56 PM 71.1 °F 61.0 °F 70% 30.23 in 10.0 mi ENE 16.1 mph 19.6 mph N/A   Clear
9:56 PM 70.0 °F 60.1 °F 71% 30.24 in 10.0 mi ENE 13.8 mph - N/A   Scattered Clouds
10:56 PM 69.1 °F 60.1 °F 73% 30.23 in 10.0 mi NE 16.1 mph 21.9 mph N/A   Clear
11:56 PM 68.0 °F 59.0 °F 73% 30.23 in 10.0 mi NE 12.7 mph - N/A   Clear